Hourly Weather Al Jazirah al Hamra

Today, 27 February, Saturday

Time Temperature Precipitation Wind Pressure Humidity
00:00 +19°C° 0 mm 4 mps 759 mmHg 73%
01:00 +19°C° 0 mm 3 mps 759 mmHg 76%
02:00 +18°C° 0 mm 3 mps 759 mmHg 76%
03:00 +18°C° 0 mm 3 mps 759 mmHg 77%
04:00 +18°C° 0 mm 3 mps 758 mmHg 77%
05:00 +18°C° 0 mm 3 mps 759 mmHg 78%
06:00 +17°C° 0 mm 3 mps 760 mmHg 79%
07:00 +17°C° 0 mm 3 mps 760 mmHg 80%
08:00 +19°C° 0 mm 3 mps 761 mmHg 71%
09:00 +21°C° 0 mm 2 mps 761 mmHg 63%
10:00 +23°C° 0 mm 2 mps 762 mmHg 54%
11:00 +24°C° 0 mm 2 mps 761 mmHg 49%
12:00 +25°C° 0 mm 3 mps 760 mmHg 45%
13:00 +26°C° 0 mm 3 mps 760 mmHg 40%
14:00 +26°C° 0 mm 3 mps 759 mmHg 41%
15:00 +26°C° 0 mm 3 mps 759 mmHg 41%
16:00 +25°C° 0 mm 3 mps 758 mmHg 42%
17:00 +24°C° 0 mm 3 mps 759 mmHg 46%
18:00 +22°C° 0 mm 3 mps 759 mmHg 51%
19:00 +21°C° 0 mm 3 mps 759 mmHg 55%
20:00 +20°C° 0 mm 3 mps 759 mmHg 58%
21:00 +20°C° 0 mm 3 mps 760 mmHg 61%
22:00 +19°C° 0 mm 3 mps 760 mmHg 64%
23:00 +19°C° 0 mm 3 mps 760 mmHg 66%

Tomorrow, 28 February, Sunday

Time Temperature Precipitation Wind Pressure Humidity
00:00 +19°C° 0 mm 3 mps 760 mmHg 69%
01:00 +18°C° 0 mm 3 mps 759 mmHg 71%
02:00 +18°C° 0 mm 3 mps 759 mmHg 73%
03:00 +17°C° 0 mm 3 mps 759 mmHg 75%
04:00 +17°C° 0 mm 2 mps 759 mmHg 76%
05:00 +17°C° 0 mm 2 mps 759 mmHg 77%
06:00 +17°C° 0 mm 2 mps 759 mmHg 78%
07:00 +17°C° 0 mm 2 mps 760 mmHg 78%
08:00 +19°C° 0 mm 2 mps 760 mmHg 70%
09:00 +21°C° 0 mm 2 mps 761 mmHg 61%
10:00 +24°C° 0 mm 2 mps 761 mmHg 52%
11:00 +25°C° 0 mm 3 mps 761 mmHg 45%
12:00 +26°C° 0 mm 3 mps 760 mmHg 39%
13:00 +27°C° 0 mm 3 mps 760 mmHg 32%
14:00 +27°C° 0 mm 4 mps 759 mmHg 34%
15:00 +26°C° 0 mm 4 mps 759 mmHg 36%
16:00 +26°C° 0 mm 4 mps 758 mmHg 37%
17:00 +25°C° 0 mm 3 mps 759 mmHg 41%
18:00 +22°C° 0 mm 3 mps 759 mmHg 45%
19:00 +21°C° 0 mm 2 mps 759 mmHg 49%
20:00 +20°C° 0 mm 2 mps 760 mmHg 51%
21:00 +21°C° 0 mm 1 mps 760 mmHg 53%
22:00 +20°C° 0 mm 1 mps 760 mmHg 55%
23:00 +20°C° 0 mm 1 mps 760 mmHg 56%

Day after tomorrow, 1 March, Monday

Time Temperature Precipitation Wind Pressure Humidity
00:00 +19°C° 0 mm 1 mps 760 mmHg 58%
01:00 +19°C° 0 mm 1 mps 759 mmHg 59%
02:00 +18°C° 0 mm 1 mps 759 mmHg 59%
03:00 +18°C° 0 mm 1 mps 759 mmHg 59%
04:00 +18°C° 0 mm 1 mps 759 mmHg 58%
05:00 +18°C° 0 mm 1 mps 759 mmHg 58%
06:00 +18°C° 0 mm 1 mps 760 mmHg 58%
07:00 +18°C° 0 mm 1 mps 760 mmHg 58%
08:00 +21°C° 0 mm 1 mps 761 mmHg 48%
09:00 +24°C° 0 mm 1 mps 761 mmHg 38%
10:00 +26°C° 0 mm 1 mps 761 mmHg 28%
11:00 +28°C° 0 mm 2 mps 761 mmHg 27%
12:00 +29°C° 0 mm 3 mps 760 mmHg 25%
13:00 +30°C° 0 mm 3 mps 760 mmHg 23%
14:00 +29°C° 0 mm 3 mps 759 mmHg 27%
15:00 +29°C° 0 mm 4 mps 759 mmHg 30%
16:00 +29°C° 0 mm 4 mps 758 mmHg 33%
17:00 +27°C° 0 mm 3 mps 759 mmHg 37%
18:00 +26°C° 0 mm 3 mps 759 mmHg 41%
19:00 +24°C° 0 mm 2 mps 760 mmHg 45%
20:00 +24°C° 0 mm 2 mps 760 mmHg 45%
21:00 +24°C° 0 mm 2 mps 760 mmHg 44%
22:00 +23°C° 0 mm 2 mps 760 mmHg 44%
23:00 +23°C° 0 mm 2 mps 760 mmHg 43%

2 March, Tuesday

Time Temperature Precipitation Wind Pressure Humidity
00:00 +23°C° 0 mm 2 mps 760 mmHg 42%
01:00 +23°C° 0 mm 2 mps 760 mmHg 41%
02:00 +22°C° 0 mm 3 mps 760 mmHg 44%
03:00 +22°C° 0 mm 3 mps 759 mmHg 48%
04:00 +22°C° 0 mm 3 mps 759 mmHg 51%
05:00 +22°C° 0 mm 3 mps 760 mmHg 52%
06:00 +22°C° 0 mm 3 mps 760 mmHg 53%
07:00 +22°C° 0 mm 3 mps 761 mmHg 54%
08:00 +26°C° 0 mm 3 mps 761 mmHg 46%
09:00 +28°C° 0 mm 3 mps 761 mmHg 38%
10:00 +31°C° 0 mm 2 mps 762 mmHg 31%
11:00 +33°C° 0 mm 3 mps 761 mmHg 30%
12:00 +34°C° 0 mm 3 mps 761 mmHg 29%
13:00 +35°C° 0 mm 4 mps 760 mmHg 28%
14:00 +34°C° 0 mm 4 mps 760 mmHg 32%
15:00 +33°C° 0 mm 5 mps 759 mmHg 36%
16:00 +30°C° 0 mm 6 mps 758 mmHg 40%
17:00 +30°C° 0 mm 5 mps 759 mmHg 43%
18:00 +29°C° 0 mm 4 mps 759 mmHg 45%
19:00 +28°C° 0 mm 4 mps 759 mmHg 47%
20:00 +28°C° 0 mm 3 mps 759 mmHg 48%
21:00 +27°C° 0 mm 3 mps 759 mmHg 48%
22:00 +27°C° 0 mm 3 mps 759 mmHg 49%
23:00 +27°C° 0 mm 3 mps 759 mmHg 49%

3 March, Wednesday

Time Temperature Precipitation Wind Pressure Humidity
00:00 +27°C° 0 mm 2 mps 759 mmHg 50%
01:00 +26°C° 0 mm 1 mps 759 mmHg 51%
02:00 +26°C° 0 mm 1 mps 758 mmHg 53%
03:00 +25°C° 0 mm 1 mps 758 mmHg 55%
04:00 +24°C° 0 mm 1 mps 758 mmHg 58%
05:00 +24°C° 0 mm 1 mps 758 mmHg 58%
06:00 +24°C° 0 mm 1 mps 759 mmHg 59%
07:00 +24°C° 0 mm 1 mps 759 mmHg 60%
08:00 +26°C° 0 mm 2 mps 760 mmHg 53%
09:00 +28°C° 0 mm 2 mps 760 mmHg 46%
10:00 +30°C° 0 mm 3 mps 760 mmHg 38%
11:00 +32°C° 0 mm 4 mps 760 mmHg 38%
12:00 +32°C° 0 mm 4 mps 759 mmHg 37%
13:00 +33°C° 0 mm 5 mps 759 mmHg 36%
14:00 +32°C° 0 mm 5 mps 759 mmHg 38%
15:00 +30°C° 0 mm 5 mps 758 mmHg 40%
16:00 +30°C° 0 mm 5 mps 758 mmHg 42%
17:00 +28°C° 0 mm 4 mps 758 mmHg 46%
18:00 +27°C° 0 mm 4 mps 758 mmHg 50%
19:00 +25°C° 0 mm 3 mps 758 mmHg 55%
20:00 +25°C° 0 mm 3 mps 758 mmHg 59%
21:00 +24°C° 0 mm 3 mps 759 mmHg 63%
22:00 +22°C° 0 mm 3 mps 759 mmHg 67%
23:00 +22°C° 0 mm 3 mps 759 mmHg 68%

4 March, Thursday

Time Temperature Precipitation Wind Pressure Humidity
00:00 +21°C° 0 mm 3 mps 759 mmHg 69%
01:00 +21°C° 0 mm 2 mps 759 mmHg 70%
02:00 +21°C° 0 mm 2 mps 758 mmHg 65%
03:00 +20°C° 0 mm 2 mps 758 mmHg 61%
04:00 +20°C° 0 mm 2 mps 758 mmHg 57%
05:00 +20°C° 0 mm 2 mps 758 mmHg 54%
06:00 +20°C° 0 mm 2 mps 758 mmHg 52%
07:00 +20°C° 0 mm 2 mps 759 mmHg 50%
08:00 +24°C° 0 mm 2 mps 759 mmHg 41%
09:00 +26°C° 0 mm 2 mps 759 mmHg 32%
10:00 +29°C° 0 mm 1 mps 760 mmHg 23%
11:00 +30°C° 0 mm 2 mps 759 mmHg 22%
12:00 +31°C° 0 mm 2 mps 758 mmHg 21%
13:00 +32°C° 0 mm 2 mps 758 mmHg 20%
14:00 +32°C° 0 mm 2 mps 757 mmHg 21%
15:00 +33°C° 0 mm 3 mps 757 mmHg 22%
16:00 +33°C° 0 mm 3 mps 756 mmHg 23%
17:00 +31°C° 0 mm 3 mps 757 mmHg 26%
18:00 +29°C° 0 mm 2 mps 757 mmHg 28%
19:00 +27°C° 0 mm 2 mps 757 mmHg 31%
20:00 +27°C° 0 mm 2 mps 757 mmHg 29%
21:00 +27°C° 0 mm 1 mps 758 mmHg 28%
22:00 +27°C° 0 mm 1 mps 758 mmHg 27%
23:00 +27°C° 0 mm 1 mps 758 mmHg 27%
Show more